Year,Month,Day,Hour,Minute,Value (Times are PST for windspeed in km/hr)
2018,12,20,00,00,0.00
2018,12,20,00,01,0.00
2018,12,20,00,02,0.00
2018,12,20,00,03,0.10
2018,12,20,00,04,0.00
2018,12,20,00,05,0.00
2018,12,20,00,06,0.00
2018,12,20,00,07,0.00
2018,12,20,00,08,0.00
2018,12,20,00,09,0.00
2018,12,20,00,10,0.00
2018,12,20,00,11,0.10
2018,12,20,00,12,0.00
2018,12,20,00,13,0.00
2018,12,20,00,14,0.00
2018,12,20,00,15,0.00
2018,12,20,00,16,0.00
2018,12,20,00,17,0.00
2018,12,20,00,18,0.00
2018,12,20,00,19,0.00
2018,12,20,00,20,0.00
2018,12,20,00,21,0.00
2018,12,20,00,22,0.00
2018,12,20,00,23,0.00
2018,12,20,00,24,0.00
2018,12,20,00,25,0.00
2018,12,20,00,26,0.00
2018,12,20,00,27,0.00
2018,12,20,00,28,0.00
2018,12,20,00,29,0.10
2018,12,20,00,30,0.00
2018,12,20,00,31,0.00
2018,12,20,00,32,0.00
2018,12,20,00,33,0.00
2018,12,20,00,34,0.00
2018,12,20,00,35,2.40
2018,12,20,00,36,1.80
2018,12,20,00,37,4.00
2018,12,20,00,38,4.80
2018,12,20,00,39,0.70
2018,12,20,00,40,0.00
2018,12,20,00,41,0.00
2018,12,20,00,42,0.00
2018,12,20,00,43,3.60
2018,12,20,00,44,3.40
2018,12,20,00,45,4.10
2018,12,20,00,46,4.80
2018,12,20,00,47,7.70
2018,12,20,00,48,13.60
2018,12,20,00,49,10.10
2018,12,20,00,50,6.20
2018,12,20,00,51,8.90
2018,12,20,00,52,4.70
2018,12,20,00,53,8.70
2018,12,20,00,54,11.40
2018,12,20,00,55,6.80
2018,12,20,00,56,13.60
2018,12,20,00,57,8.10
2018,12,20,00,58,8.30
2018,12,20,00,59,8.30
2018,12,20,01,00,8.00
2018,12,20,01,01,9.20
2018,12,20,01,02,6.50
2018,12,20,01,03,7.10
2018,12,20,01,04,9.00
2018,12,20,01,05,8.70
2018,12,20,01,06,15.50
2018,12,20,01,07,15.10
2018,12,20,01,08,11.10
2018,12,20,01,09,13.30
2018,12,20,01,10,10.10
2018,12,20,01,11,8.40
2018,12,20,01,12,11.30
2018,12,20,01,13,8.00
2018,12,20,01,14,11.00
2018,12,20,01,15,13.30
2018,12,20,01,16,9.00
2018,12,20,01,17,14.70
2018,12,20,01,18,8.70
2018,12,20,01,19,10.00
2018,12,20,01,20,11.30
2018,12,20,01,21,9.70
2018,12,20,01,22,10.90
2018,12,20,01,23,13.00
2018,12,20,01,24,4.80
2018,12,20,01,25,7.30
2018,12,20,01,26,12.10
2018,12,20,01,27,9.00
2018,12,20,01,28,11.90
2018,12,20,01,29,6.70
2018,12,20,01,30,11.30
2018,12,20,01,31,6.70
2018,12,20,01,32,8.70
2018,12,20,01,33,9.50
2018,12,20,01,34,10.00
2018,12,20,01,35,4.90
2018,12,20,01,36,7.80
2018,12,20,01,37,9.60
2018,12,20,01,38,10.30
2018,12,20,01,39,9.60
2018,12,20,01,40,8.80
2018,12,20,01,41,10.70
2018,12,20,01,42,6.50
2018,12,20,01,43,5.30
2018,12,20,01,44,3.80
2018,12,20,01,45,3.40
2018,12,20,01,46,2.40
2018,12,20,01,47,8.40
2018,12,20,01,48,4.40
2018,12,20,01,49,5.10
2018,12,20,01,50,3.40
2018,12,20,01,51,13.00
2018,12,20,01,52,11.70
2018,12,20,01,53,11.30
2018,12,20,01,54,13.20
2018,12,20,01,55,8.70
2018,12,20,01,56,6.60
2018,12,20,01,57,10.00
2018,12,20,01,58,10.30
2018,12,20,01,59,7.40
2018,12,20,02,00,10.50
2018,12,20,02,01,7.20
2018,12,20,02,02,7.90
2018,12,20,02,03,7.70
2018,12,20,02,04,7.90
2018,12,20,02,05,8.60
2018,12,20,02,06,8.90
2018,12,20,02,07,6.00
2018,12,20,02,08,11.70
2018,12,20,02,09,6.20
2018,12,20,02,10,4.80
2018,12,20,02,11,3.40
2018,12,20,02,12,8.50
2018,12,20,02,13,9.10
2018,12,20,02,14,7.10
2018,12,20,02,15,5.20
2018,12,20,02,16,5.00
2018,12,20,02,17,5.70
2018,12,20,02,18,6.40
2018,12,20,02,19,6.10
2018,12,20,02,20,6.50
2018,12,20,02,21,7.40
2018,12,20,02,22,9.10
2018,12,20,02,23,9.40
2018,12,20,02,24,5.90
2018,12,20,02,25,6.10
2018,12,20,02,26,6.70
2018,12,20,02,27,7.20
2018,12,20,02,28,2.60
2018,12,20,02,29,4.80
2018,12,20,02,30,5.20
2018,12,20,02,31,3.00
2018,12,20,02,32,3.90
2018,12,20,02,33,4.00
2018,12,20,02,34,3.90
2018,12,20,02,35,6.70
2018,12,20,02,36,4.30
2018,12,20,02,37,6.50
2018,12,20,02,38,7.10
2018,12,20,02,39,9.90
2018,12,20,02,40,10.30
2018,12,20,02,41,8.10
2018,12,20,02,42,14.30
2018,12,20,02,43,11.30
2018,12,20,02,44,10.70
2018,12,20,02,45,9.30
2018,12,20,02,46,12.40
2018,12,20,02,47,8.20
2018,12,20,02,48,7.40
2018,12,20,02,49,7.90
2018,12,20,02,50,8.00
2018,12,20,02,51,5.50
2018,12,20,02,52,6.40
2018,12,20,02,53,5.40
2018,12,20,02,54,7.70
2018,12,20,02,55,6.60
2018,12,20,02,56,5.90
2018,12,20,02,57,2.50
2018,12,20,02,58,8.40
2018,12,20,02,59,5.10
2018,12,20,03,00,3.30
2018,12,20,03,01,6.10
2018,12,20,03,02,4.10
2018,12,20,03,03,2.70
2018,12,20,03,04,6.10
2018,12,20,03,05,2.50
2018,12,20,03,06,0.90
2018,12,20,03,07,3.40
2018,12,20,03,08,1.70
2018,12,20,03,09,8.40
2018,12,20,03,10,7.20
2018,12,20,03,11,4.10
2018,12,20,03,12,4.80
2018,12,20,03,13,6.90
2018,12,20,03,14,10.70
2018,12,20,03,15,11.30
2018,12,20,03,16,9.60
2018,12,20,03,17,7.30
2018,12,20,03,18,9.00
2018,12,20,03,19,9.00
2018,12,20,03,20,10.50
2018,12,20,03,21,10.20
2018,12,20,03,22,10.90
2018,12,20,03,23,8.70
2018,12,20,03,24,12.90
2018,12,20,03,25,8.10
2018,12,20,03,26,10.70
2018,12,20,03,27,10.60
2018,12,20,03,28,3.90
2018,12,20,03,29,5.00
2018,12,20,03,30,5.10
2018,12,20,03,31,4.30
2018,12,20,03,32,3.40
2018,12,20,03,33,5.00
2018,12,20,03,34,4.00
2018,12,20,03,35,5.30
2018,12,20,03,36,4.60
2018,12,20,03,37,5.50
2018,12,20,03,38,5.00
2018,12,20,03,39,2.80
2018,12,20,03,40,3.70
2018,12,20,03,41,2.10
2018,12,20,03,42,2.80
2018,12,20,03,43,2.60
2018,12,20,03,44,5.00
2018,12,20,03,45,2.40
2018,12,20,03,46,0.00
2018,12,20,03,47,3.20
2018,12,20,03,48,1.80
2018,12,20,03,49,0.30
2018,12,20,03,50,0.70
2018,12,20,03,51,2.20
2018,12,20,03,52,1.70
2018,12,20,03,53,1.90
2018,12,20,03,54,2.00
2018,12,20,03,55,2.30
2018,12,20,03,56,1.60
2018,12,20,03,57,1.60
2018,12,20,03,58,1.60
2018,12,20,03,59,1.60
2018,12,20,04,00,1.60
2018,12,20,04,01,1.60
2018,12,20,04,02,0.20
2018,12,20,04,03,0.00
2018,12,20,04,04,0.00
2018,12,20,04,05,0.60
2018,12,20,04,06,2.50
2018,12,20,04,07,3.70
2018,12,20,04,08,4.60
2018,12,20,04,09,2.60
2018,12,20,04,10,2.80
2018,12,20,04,11,2.10
2018,12,20,04,12,5.10
2018,12,20,04,13,1.20
2018,12,20,04,14,0.80
2018,12,20,04,15,1.00
2018,12,20,04,16,0.00
2018,12,20,04,17,0.00
2018,12,20,04,18,0.00
2018,12,20,04,19,0.00
2018,12,20,04,20,0.20
2018,12,20,04,21,1.20
2018,12,20,04,22,3.20
2018,12,20,04,23,4.20
2018,12,20,04,24,2.80
2018,12,20,04,25,1.20
2018,12,20,04,26,5.40
2018,12,20,04,27,3.80
2018,12,20,04,28,3.60
2018,12,20,04,29,2.80
2018,12,20,04,30,1.00
2018,12,20,04,31,3.10
2018,12,20,04,32,3.40
2018,12,20,04,33,4.50
2018,12,20,04,34,4.80
2018,12,20,04,35,5.20
2018,12,20,04,36,1.20
2018,12,20,04,37,3.80
2018,12,20,04,38,3.10
2018,12,20,04,39,4.20
2018,12,20,04,40,2.50
2018,12,20,04,41,4.80
2018,12,20,04,42,3.10
2018,12,20,04,43,2.50
2018,12,20,04,44,1.80
2018,12,20,04,45,2.30
2018,12,20,04,46,3.30
2018,12,20,04,47,3.80
2018,12,20,04,48,2.60
2018,12,20,04,49,1.80
2018,12,20,04,50,1.80
2018,12,20,04,51,2.60
2018,12,20,04,52,2.60
2018,12,20,04,53,4.20
2018,12,20,04,54,5.10
2018,12,20,04,55,2.20
2018,12,20,04,56,3.10
2018,12,20,04,57,2.50
2018,12,20,04,58,3.00
2018,12,20,04,59,2.60
2018,12,20,05,00,4.00
2018,12,20,05,01,2.50
2018,12,20,05,02,3.10
2018,12,20,05,03,3.60
2018,12,20,05,04,1.80
2018,12,20,05,05,0.00
2018,12,20,05,06,0.00
2018,12,20,05,07,1.10
2018,12,20,05,08,0.20
2018,12,20,05,09,1.90
2018,12,20,05,10,0.00
2018,12,20,05,11,0.00
2018,12,20,05,12,0.00
2018,12,20,05,13,0.00
2018,12,20,05,14,1.30
2018,12,20,05,15,0.00
2018,12,20,05,16,1.70
2018,12,20,05,17,0.00
2018,12,20,05,18,0.00
2018,12,20,05,19,0.00
2018,12,20,05,20,0.00
2018,12,20,05,21,0.00
2018,12,20,05,22,0.00
2018,12,20,05,23,0.00
2018,12,20,05,24,0.00
2018,12,20,05,25,0.00
2018,12,20,05,26,0.00
2018,12,20,05,27,0.00
2018,12,20,05,28,1.60
2018,12,20,05,29,1.50
2018,12,20,05,30,2.50
2018,12,20,05,31,1.70
2018,12,20,05,32,2.10
2018,12,20,05,33,2.40
2018,12,20,05,34,3.30
2018,12,20,05,35,6.40
2018,12,20,05,36,6.10
2018,12,20,05,37,6.10
2018,12,20,05,38,5.80
2018,12,20,05,39,2.80
2018,12,20,05,40,2.60
2018,12,20,05,41,2.40
2018,12,20,05,42,0.90
2018,12,20,05,43,0.50
2018,12,20,05,44,0.10
2018,12,20,05,45,2.10
2018,12,20,05,46,3.80
2018,12,20,05,47,3.30
2018,12,20,05,48,2.10
2018,12,20,05,49,2.10
2018,12,20,05,50,4.10
2018,12,20,05,51,4.70
2018,12,20,05,52,3.60
2018,12,20,05,53,6.00
2018,12,20,05,54,3.80
2018,12,20,05,55,3.60
2018,12,20,05,56,5.90
2018,12,20,05,57,4.70
2018,12,20,05,58,3.10
2018,12,20,05,59,5.80
2018,12,20,06,00,3.80
2018,12,20,06,01,5.50
2018,12,20,06,02,2.80
2018,12,20,06,03,1.60
2018,12,20,06,04,0.10
2018,12,20,06,05,1.10
2018,12,20,06,06,0.10
2018,12,20,06,07,1.60
2018,12,20,06,08,0.10
2018,12,20,06,09,2.10
2018,12,20,06,10,1.90
2018,12,20,06,11,2.30
2018,12,20,06,12,1.90
2018,12,20,06,13,5.00
2018,12,20,06,14,5.40
2018,12,20,06,15,1.90
2018,12,20,06,16,0.00
2018,12,20,06,17,0.30
2018,12,20,06,18,2.30
2018,12,20,06,19,2.90
2018,12,20,06,20,4.10
2018,12,20,06,21,4.90
2018,12,20,06,22,3.40
2018,12,20,06,23,3.00
2018,12,20,06,24,1.20
2018,12,20,06,25,2.00
2018,12,20,06,26,3.10
2018,12,20,06,27,3.90
2018,12,20,06,28,4.60
2018,12,20,06,29,2.40
2018,12,20,06,30,3.70
2018,12,20,06,31,3.70
2018,12,20,06,32,6.60
2018,12,20,06,33,9.10
2018,12,20,06,34,5.40
2018,12,20,06,35,6.70
2018,12,20,06,36,6.50
2018,12,20,06,37,3.80
2018,12,20,06,38,5.10
2018,12,20,06,39,7.20
2018,12,20,06,40,10.20
2018,12,20,06,41,9.40
2018,12,20,06,42,9.50
2018,12,20,06,43,9.70
2018,12,20,06,44,7.90
2018,12,20,06,45,8.60
2018,12,20,06,46,7.40
2018,12,20,06,47,5.40
2018,12,20,06,48,4.00
2018,12,20,06,49,3.90
2018,12,20,06,50,4.10
2018,12,20,06,51,4.30
2018,12,20,06,52,4.20
2018,12,20,06,53,5.50
2018,12,20,06,54,6.60
2018,12,20,06,55,11.70
2018,12,20,06,56,5.70
2018,12,20,06,57,5.50
2018,12,20,06,58,5.90
2018,12,20,06,59,5.70
2018,12,20,07,00,4.10
2018,12,20,07,01,2.90
2018,12,20,07,02,3.90
2018,12,20,07,03,7.40
2018,12,20,07,04,6.00
2018,12,20,07,05,4.20
2018,12,20,07,06,5.50
2018,12,20,07,07,6.30
2018,12,20,07,08,5.50
2018,12,20,07,09,4.10
2018,12,20,07,10,0.70
2018,12,20,07,11,3.70
2018,12,20,07,12,6.30
2018,12,20,07,13,3.10
2018,12,20,07,14,2.40
2018,12,20,07,15,5.40
2018,12,20,07,16,4.30
2018,12,20,07,17,1.50
2018,12,20,07,18,3.70
2018,12,20,07,19,4.20
2018,12,20,07,20,5.90
2018,12,20,07,21,5.50
2018,12,20,07,22,4.10
2018,12,20,07,23,1.60
2018,12,20,07,24,3.30
2018,12,20,07,25,4.70
2018,12,20,07,26,2.60
2018,12,20,07,27,3.70
2018,12,20,07,28,5.20
2018,12,20,07,29,5.30
2018,12,20,07,30,7.30
2018,12,20,07,31,5.00
2018,12,20,07,32,3.70
2018,12,20,07,33,5.30
2018,12,20,07,34,4.90
2018,12,20,07,35,4.40
2018,12,20,07,36,5.60
2018,12,20,07,37,3.40
2018,12,20,07,38,5.40
2018,12,20,07,39,4.70
2018,12,20,07,40,6.80
2018,12,20,07,41,7.10
2018,12,20,07,42,6.30
2018,12,20,07,43,4.40
2018,12,20,07,44,6.40
2018,12,20,07,45,4.80
2018,12,20,07,46,1.20
2018,12,20,07,47,3.50
2018,12,20,07,48,4.90
2018,12,20,07,49,7.30
2018,12,20,07,50,2.60
2018,12,20,07,51,1.90
2018,12,20,07,52,5.30
2018,12,20,07,53,5.80
2018,12,20,07,54,6.60
2018,12,20,07,55,6.10
2018,12,20,07,56,7.50
2018,12,20,07,57,1.10
2018,12,20,07,58,0.10
2018,12,20,07,59,0.20
2018,12,20,08,00,0.70
2018,12,20,08,01,3.90
2018,12,20,08,02,4.50
2018,12,20,08,03,2.80
2018,12,20,08,04,4.80
2018,12,20,08,05,9.90
2018,12,20,08,06,4.30
2018,12,20,08,07,4.80
2018,12,20,08,08,4.00
2018,12,20,08,09,3.70
2018,12,20,08,10,8.00
2018,12,20,08,11,5.80
2018,12,20,08,12,3.60
2018,12,20,08,13,5.40
2018,12,20,08,14,10.00
2018,12,20,08,15,5.70
2018,12,20,08,16,5.20
2018,12,20,08,17,6.50
2018,12,20,08,18,6.40
2018,12,20,08,19,6.70
2018,12,20,08,20,5.00
2018,12,20,08,21,5.80
2018,12,20,08,22,3.50
2018,12,20,08,23,3.30
2018,12,20,08,24,4.20
2018,12,20,08,25,3.10
2018,12,20,08,26,4.30
2018,12,20,08,27,4.80
2018,12,20,08,28,5.00
2018,12,20,08,29,5.10
2018,12,20,08,30,5.90
2018,12,20,08,31,5.40
2018,12,20,08,32,3.50
2018,12,20,08,33,2.60
2018,12,20,08,34,5.60
2018,12,20,08,35,5.00
2018,12,20,08,36,3.40
2018,12,20,08,37,5.60
2018,12,20,08,38,5.20
2018,12,20,08,39,6.10
2018,12,20,08,40,5.80
2018,12,20,08,41,5.40
2018,12,20,08,42,6.10
2018,12,20,08,43,5.50
2018,12,20,08,44,5.80
2018,12,20,08,45,5.80
2018,12,20,08,46,5.10
2018,12,20,08,47,7.20
2018,12,20,08,48,6.40
2018,12,20,08,49,4.10
2018,12,20,08,50,6.70
2018,12,20,08,51,7.40
2018,12,20,08,52,7.40
2018,12,20,08,53,6.10
2018,12,20,08,54,6.40
2018,12,20,08,55,6.40
2018,12,20,08,56,4.80
2018,12,20,08,57,5.80
2018,12,20,08,58,4.90
2018,12,20,08,59,8.00
2018,12,20,09,00,7.60
2018,12,20,09,01,6.90
2018,12,20,09,02,6.10
2018,12,20,09,03,4.90
2018,12,20,09,04,5.40
2018,12,20,09,05,6.10
2018,12,20,09,06,5.60
2018,12,20,09,07,11.10
2018,12,20,09,08,12.50
2018,12,20,09,09,8.20
2018,12,20,09,10,5.90
2018,12,20,09,11,5.40
2018,12,20,09,12,6.20
2018,12,20,09,13,10.00
2018,12,20,09,14,7.20
2018,12,20,09,15,3.10
2018,12,20,09,16,0.40
2018,12,20,09,17,3.80
2018,12,20,09,18,10.00
2018,12,20,09,19,5.90
2018,12,20,09,20,2.60
2018,12,20,09,21,4.00
2018,12,20,09,22,5.60
2018,12,20,09,23,5.40
2018,12,20,09,24,3.10
2018,12,20,09,25,3.90
2018,12,20,09,26,4.70
2018,12,20,09,27,7.20
2018,12,20,09,28,4.40
2018,12,20,09,29,3.20
2018,12,20,09,30,4.10
2018,12,20,09,31,3.40
2018,12,20,09,32,6.30
2018,12,20,09,33,6.10
2018,12,20,09,34,8.80
2018,12,20,09,35,4.00
2018,12,20,09,36,5.30
2018,12,20,09,37,2.30
2018,12,20,09,38,5.00
2018,12,20,09,39,6.40
2018,12,20,09,40,8.20
2018,12,20,09,41,4.40
2018,12,20,09,42,4.30
2018,12,20,09,43,7.20
2018,12,20,09,44,6.20
2018,12,20,09,45,5.60
2018,12,20,09,46,5.20
2018,12,20,09,47,4.30
2018,12,20,09,48,4.10
2018,12,20,09,49,4.50
2018,12,20,09,50,3.50
2018,12,20,09,51,3.00
2018,12,20,09,52,5.30
2018,12,20,09,53,6.80
2018,12,20,09,54,6.40
2018,12,20,09,55,10.40
2018,12,20,09,56,5.60
2018,12,20,09,57,6.10
2018,12,20,09,58,6.40
2018,12,20,09,59,4.40
2018,12,20,10,00,5.10
2018,12,20,10,01,4.50
2018,12,20,10,02,4.40
2018,12,20,10,03,2.90
2018,12,20,10,04,4.10
2018,12,20,10,05,2.80
2018,12,20,10,06,1.50
2018,12,20,10,07,4.00
2018,12,20,10,08,3.30
2018,12,20,10,09,0.60
2018,12,20,10,10,0.00
2018,12,20,10,11,3.80
2018,12,20,10,12,4.90
2018,12,20,10,13,5.30
2018,12,20,10,14,2.30
2018,12,20,10,15,2.10
2018,12,20,10,16,3.50
2018,12,20,10,17,1.80
2018,12,20,10,18,3.70
2018,12,20,10,19,0.20
2018,12,20,10,20,1.60
2018,12,20,10,21,1.40
2018,12,20,10,22,2.50
2018,12,20,10,23,4.00
2018,12,20,10,24,3.20
2018,12,20,10,25,1.80
2018,12,20,10,26,0.10
2018,12,20,10,27,0.00
2018,12,20,10,28,0.00
2018,12,20,10,29,0.10
2018,12,20,10,30,0.00
2018,12,20,10,31,0.00
2018,12,20,10,32,0.00
2018,12,20,10,33,0.70
2018,12,20,10,34,1.20
2018,12,20,10,35,2.10
2018,12,20,10,36,1.00
2018,12,20,10,37,3.10
2018,12,20,10,38,0.80
2018,12,20,10,39,1.50
2018,12,20,10,40,7.00
2018,12,20,10,41,7.10
2018,12,20,10,42,5.40
2018,12,20,10,43,1.20
2018,12,20,10,44,3.40
2018,12,20,10,45,2.80
2018,12,20,10,46,6.20
2018,12,20,10,47,7.80
2018,12,20,10,48,15.60
2018,12,20,10,49,9.20
2018,12,20,10,50,7.70
2018,12,20,10,51,8.90
2018,12,20,10,52,4.50
2018,12,20,10,53,8.80
2018,12,20,10,54,10.30
2018,12,20,10,55,7.20
2018,12,20,10,56,7.20
2018,12,20,10,57,12.10
2018,12,20,10,58,10.70
2018,12,20,10,59,12.10
2018,12,20,11,00,16.80
2018,12,20,11,01,11.00
2018,12,20,11,02,17.70
2018,12,20,11,03,19.00
2018,12,20,11,04,23.00
2018,12,20,11,05,17.20
2018,12,20,11,06,22.50
2018,12,20,11,07,19.90
2018,12,20,11,08,20.50
2018,12,20,11,09,22.70
2018,12,20,11,10,20.30
2018,12,20,11,11,20.00
2018,12,20,11,12,21.00
2018,12,20,11,13,20.30
2018,12,20,11,14,20.90
2018,12,20,11,15,24.80
2018,12,20,11,16,24.70
2018,12,20,11,17,25.00
2018,12,20,11,18,23.80
2018,12,20,11,19,16.00
2018,12,20,11,20,28.30
2018,12,20,11,21,24.20
2018,12,20,11,22,24.00
2018,12,20,11,23,30.70
2018,12,20,11,24,33.70
2018,12,20,11,25,39.40
2018,12,20,11,26,33.00
2018,12,20,11,27,30.50
2018,12,20,11,28,35.90
2018,12,20,11,29,26.70
2018,12,20,11,30,24.60
2018,12,20,11,31,32.00
2018,12,20,11,32,38.50
2018,12,20,11,33,20.60
2018,12,20,11,34,22.50
2018,12,20,11,35,22.10
2018,12,20,11,36,36.70
2018,12,20,11,37,24.70
2018,12,20,11,38,19.50
2018,12,20,11,39,21.70
2018,12,20,11,40,30.10
2018,12,20,11,41,22.60
2018,12,20,11,42,32.60
2018,12,20,11,43,31.30
2018,12,20,11,44,23.80
2018,12,20,11,45,27.80
2018,12,20,11,46,27.40
2018,12,20,11,47,19.10
2018,12,20,11,48,23.10
2018,12,20,11,49,18.40
2018,12,20,11,50,17.80
2018,12,20,11,51,12.70
2018,12,20,11,52,13.70
2018,12,20,11,53,20.60
2018,12,20,11,54,15.50
2018,12,20,11,55,13.10
2018,12,20,11,56,12.90
2018,12,20,11,57,11.00
2018,12,20,11,58,15.30
2018,12,20,11,59,23.70
2018,12,20,12,00,25.40
2018,12,20,12,01,19.40
2018,12,20,12,02,26.20
2018,12,20,12,03,25.10
2018,12,20,12,04,30.20
2018,12,20,12,05,28.30
2018,12,20,12,06,34.90
2018,12,20,12,07,21.70
2018,12,20,12,08,24.00
2018,12,20,12,09,33.00
2018,12,20,12,10,24.50
2018,12,20,12,11,42.00
2018,12,20,12,12,35.90
2018,12,20,12,13,35.10
2018,12,20,12,14,36.40
2018,12,20,12,15,25.30
2018,12,20,12,16,36.90
2018,12,20,12,17,30.20
2018,12,20,12,18,38.20
2018,12,20,12,19,30.90
2018,12,20,12,20,33.90
2018,12,20,12,21,33.20
2018,12,20,12,22,27.70
2018,12,20,12,23,18.00
2018,12,20,12,24,19.10
2018,12,20,12,25,26.40
2018,12,20,12,26,24.50
2018,12,20,12,27,32.20
2018,12,20,12,28,18.60
2018,12,20,12,29,27.50
2018,12,20,12,30,28.90
2018,12,20,12,31,36.40
2018,12,20,12,32,32.60
2018,12,20,12,33,17.20
2018,12,20,12,34,22.10
2018,12,20,12,35,28.10
2018,12,20,12,36,19.10
2018,12,20,12,37,18.60
2018,12,20,12,38,22.80
2018,12,20,12,39,21.20
2018,12,20,12,40,24.80
2018,12,20,12,41,28.30
2018,12,20,12,42,28.40
2018,12,20,12,43,14.60
2018,12,20,12,44,24.70
2018,12,20,12,45,32.20
2018,12,20,12,46,32.20
2018,12,20,12,47,32.20
2018,12,20,12,48,32.20
2018,12,20,12,49,32.20
2018,12,20,12,50,32.20
2018,12,20,12,51,32.20
2018,12,20,12,52,32.20
2018,12,20,12,53,32.20
2018,12,20,12,54,32.20
2018,12,20,13,10,19.80
2018,12,20,13,11,23.00
2018,12,20,13,12,32.10
2018,12,20,13,13,28.50
2018,12,20,13,14,29.40
2018,12,20,13,15,31.60
2018,12,20,13,16,24.90
2018,12,20,13,17,21.10
2018,12,20,13,18,25.30
2018,12,20,13,19,31.00
2018,12,20,13,20,36.90
2018,12,20,13,21,24.70
2018,12,20,13,22,19.20
2018,12,20,13,23,25.30
2018,12,20,13,24,23.30
2018,12,20,13,25,24.70
2018,12,20,13,26,26.50
2018,12,20,13,27,33.00
2018,12,20,13,28,38.50
2018,12,20,13,29,33.90
2018,12,20,13,30,29.30
2018,12,20,13,31,26.20
2018,12,20,13,32,21.50
2018,12,20,13,33,28.00
2018,12,20,13,34,22.50
2018,12,20,13,35,18.30
2018,12,20,13,36,27.70
2018,12,20,13,37,27.10
2018,12,20,13,38,25.70
2018,12,20,13,39,26.70
2018,12,20,13,40,19.50
2018,12,20,13,41,32.00
2018,12,20,13,42,37.70
2018,12,20,13,43,21.80
2018,12,20,13,44,20.40
2018,12,20,13,45,25.80
2018,12,20,13,46,18.40
2018,12,20,13,47,16.30
2018,12,20,13,48,18.80
2018,12,20,13,49,23.10
2018,12,20,13,50,29.30
2018,12,20,13,51,21.90
2018,12,20,13,52,19.50
2018,12,20,13,53,29.40
2018,12,20,13,54,28.00
2018,12,20,13,55,18.10
2018,12,20,13,56,18.70
2018,12,20,13,57,19.30
2018,12,20,13,58,22.20
2018,12,20,13,59,26.90
2018,12,20,14,00,33.40
2018,12,20,14,01,28.40
2018,12,20,14,02,20.60
2018,12,20,14,03,20.50
2018,12,20,14,04,19.10
2018,12,20,14,05,14.70
2018,12,20,14,06,17.90
2018,12,20,14,07,33.90
2018,12,20,14,08,40.30
2018,12,20,14,09,25.10
2018,12,20,14,10,33.40
2018,12,20,14,11,30.10
2018,12,20,14,12,36.60
2018,12,20,14,13,28.40
2018,12,20,14,14,26.00
2018,12,20,14,15,35.10
2018,12,20,14,16,22.40
2018,12,20,14,17,39.10
2018,12,20,14,18,28.80
2018,12,20,14,19,26.20
2018,12,20,14,20,31.00
2018,12,20,14,21,42.50
2018,12,20,14,22,30.90
2018,12,20,14,23,23.10
2018,12,20,14,24,29.10
2018,12,20,14,25,30.00
2018,12,20,14,26,32.80
2018,12,20,14,27,36.70
2018,12,20,14,28,32.60
2018,12,20,14,29,41.00
2018,12,20,14,30,33.30
2018,12,20,14,31,28.00
2018,12,20,14,32,29.10
2018,12,20,14,33,33.40
2018,12,20,14,34,21.30
2018,12,20,14,35,24.80
2018,12,20,14,36,29.20
2018,12,20,14,37,28.80
2018,12,20,14,38,22.80
2018,12,20,14,39,29.40
2018,12,20,14,40,34.20
2018,12,20,14,41,36.90
2018,12,20,14,42,26.70
2018,12,20,14,43,33.90
2018,12,20,14,44,29.20
2018,12,20,14,45,32.30
2018,12,20,14,46,39.70
2018,12,20,14,47,36.10
2018,12,20,14,48,29.90
2018,12,20,14,49,20.90
2018,12,20,14,50,40.70
2018,12,20,14,51,28.40
2018,12,20,14,52,17.90
2018,12,20,14,53,27.90
2018,12,20,14,54,32.20
2018,12,20,14,55,27.80
2018,12,20,14,56,33.00
2018,12,20,14,57,28.80
2018,12,20,14,58,28.60
2018,12,20,14,59,19.90
2018,12,20,15,00,19.40
2018,12,20,15,01,34.20
2018,12,20,15,02,30.50
2018,12,20,15,03,31.30
2018,12,20,15,04,23.20
2018,12,20,15,05,29.90
2018,12,20,15,06,22.00
2018,12,20,15,07,24.30
2018,12,20,15,08,24.70
2018,12,20,15,09,22.30
2018,12,20,15,10,19.70
2018,12,20,15,11,17.40
2018,12,20,15,12,21.80
2018,12,20,15,13,24.10
2018,12,20,15,14,27.30
2018,12,20,15,15,29.60
2018,12,20,15,16,33.10
2018,12,20,15,17,32.70
2018,12,20,15,18,28.10
2018,12,20,15,19,28.20
2018,12,20,15,20,27.50
2018,12,20,15,21,21.50
2018,12,20,15,22,21.90
2018,12,20,15,23,29.30
2018,12,20,15,24,25.10
2018,12,20,15,25,22.40
2018,12,20,15,26,22.80
2018,12,20,15,27,35.10
2018,12,20,15,28,28.40
2018,12,20,15,29,22.50
2018,12,20,15,30,31.30
2018,12,20,15,31,26.50
2018,12,20,15,32,29.30
2018,12,20,15,33,34.30
2018,12,20,15,34,30.20
2018,12,20,15,35,24.40
2018,12,20,15,36,23.60
2018,12,20,15,37,25.90
2018,12,20,15,38,26.00
2018,12,20,15,39,31.00
2018,12,20,15,40,27.70
2018,12,20,15,41,31.10
2018,12,20,15,42,27.60
2018,12,20,15,43,27.60
2018,12,20,15,44,32.60
2018,12,20,15,45,34.30
2018,12,20,15,46,34.90
2018,12,20,15,47,38.80
2018,12,20,15,48,29.50
2018,12,20,15,49,31.00
2018,12,20,15,50,34.70
2018,12,20,15,51,30.10
2018,12,20,15,52,26.90
2018,12,20,15,53,47.40
2018,12,20,15,54,40.10
2018,12,20,15,55,24.40
2018,12,20,15,56,32.30
2018,12,20,15,57,50.90
2018,12,20,15,58,21.40
2018,12,20,15,59,19.30
2018,12,20,16,00,32.50
2018,12,20,16,01,19.60
2018,12,20,16,02,27.20
2018,12,20,16,03,25.10
2018,12,20,16,04,15.90
2018,12,20,16,05,25.60
2018,12,20,16,06,31.00
2018,12,20,16,07,35.00
2018,12,20,16,08,22.10
2018,12,20,16,09,34.40
2018,12,20,16,10,32.30
2018,12,20,16,11,25.70
2018,12,20,16,12,19.60
2018,12,20,16,13,26.10
2018,12,20,16,14,30.40
2018,12,20,16,15,20.90
2018,12,20,16,16,9.30
2018,12,20,16,17,21.90
2018,12,20,16,18,22.50
2018,12,20,16,19,24.80
2018,12,20,16,20,23.00
2018,12,20,16,21,21.80
2018,12,20,16,22,12.30
2018,12,20,16,23,12.80
2018,12,20,16,24,6.10
2018,12,20,16,25,5.90
2018,12,20,16,26,9.60
2018,12,20,16,27,16.10
2018,12,20,16,28,16.10
2018,12,20,16,29,8.90
2018,12,20,16,30,11.00
2018,12,20,16,31,15.60
2018,12,20,16,32,13.00
2018,12,20,16,33,13.30
2018,12,20,16,34,13.00
2018,12,20,16,35,14.80
2018,12,20,16,36,18.80
2018,12,20,16,37,25.00
2018,12,20,16,38,16.70
2018,12,20,16,39,13.80
2018,12,20,16,40,16.60
2018,12,20,16,41,18.20
2018,12,20,16,42,17.90
2018,12,20,16,43,16.90
2018,12,20,16,44,21.80
2018,12,20,16,45,23.10
2018,12,20,16,46,18.20
2018,12,20,16,47,8.80
2018,12,20,16,48,9.40
2018,12,20,16,49,9.70
2018,12,20,16,50,9.40
2018,12,20,16,51,16.30
2018,12,20,16,52,16.90
2018,12,20,16,53,23.60
2018,12,20,16,54,20.00
2018,12,20,16,55,17.40
2018,12,20,16,56,21.70
2018,12,20,16,57,17.90
2018,12,20,16,58,18.80
2018,12,20,16,59,19.80
2018,12,20,17,00,18.50
2018,12,20,17,01,15.10
2018,12,20,17,02,21.20
2018,12,20,17,03,15.30
2018,12,20,17,04,16.10
2018,12,20,17,05,15.50
2018,12,20,17,06,17.20
2018,12,20,17,07,16.60
2018,12,20,17,08,14.20
2018,12,20,17,09,12.70
2018,12,20,17,10,11.30
2018,12,20,17,11,13.90
2018,12,20,17,12,7.90
2018,12,20,17,13,9.20
2018,12,20,17,14,20.10
2018,12,20,17,15,23.80
2018,12,20,17,16,18.50
2018,12,20,17,17,13.40
2018,12,20,17,18,13.20
2018,12,20,17,19,10.60
2018,12,20,17,20,11.70
2018,12,20,17,21,8.90
2018,12,20,17,22,8.40
2018,12,20,17,23,8.10
2018,12,20,17,24,9.70
2018,12,20,17,25,11.70
2018,12,20,17,26,10.20
2018,12,20,17,27,13.60
2018,12,20,17,28,11.00
2018,12,20,17,29,15.70
2018,12,20,17,30,16.90
2018,12,20,17,31,12.40
2018,12,20,17,32,10.20
2018,12,20,17,33,14.30
2018,12,20,17,34,14.80
2018,12,20,17,35,11.10
2018,12,20,17,36,19.40
2018,12,20,17,37,15.20
2018,12,20,17,38,14.10
2018,12,20,17,39,13.90
2018,12,20,17,40,11.60
2018,12,20,17,41,15.90
2018,12,20,17,42,17.00
2018,12,20,17,43,17.50
2018,12,20,17,44,26.60
2018,12,20,17,45,22.50
2018,12,20,17,46,19.30
2018,12,20,17,47,13.70
2018,12,20,17,48,15.60
2018,12,20,17,49,11.70
2018,12,20,17,50,27.00
2018,12,20,17,51,26.60
2018,12,20,17,52,13.60
2018,12,20,17,53,12.30
2018,12,20,17,54,10.40
2018,12,20,17,55,7.40
2018,12,20,17,56,16.20
2018,12,20,17,57,13.30
2018,12,20,17,58,14.70
2018,12,20,17,59,16.70
2018,12,20,18,00,12.00
2018,12,20,18,01,13.30